Litchfield, MN

8:08 AM CST on February 20, 2017 (GMT -0600)
Litchfield Municipal

Weather History for KLJF - November, 2014

Change the Weather History Date:

Tuesday, November 25, 2014

  Actual Average Record
Temperature  
Mean Temperature 16 °F -  
Max Temperature 24 °F 34 °F 59 °F (1960)
Min Temperature 8 °F 18 °F -13 °F (1977)
Degree Days  
Heating Degree Days 49    
Moisture  
Dew Point 12 °F    
Average Humidity 78    
Maximum Humidity 92    
Minimum Humidity 59    
Precipitation  
Precipitation 0.00 in - - ()
Sea Level Pressure  
Sea Level Pressure 29.99 in    
Wind  
Wind Speed 6 mph (SSE)    
Max Wind Speed 12 mph    
Max Gust Speed 16 mph    
Visibility 10 miles    
Events      
Averages and records for this station are not official NWS values.
T = Trace of Precipitation, MM = Missing Value Source: NWS Daily Summary

Daily Weather History Graph

Daily Weather History Graph

Search for Another Location

Airport or City:

Trip Planner

Search our weather history database for the weather conditions in past years. The results will help you decide how hot, cold, wet, or windy it might be!

Date:

Astronomy

Nov. 25, 2014 Rise Set
Actual Time 7:29 AM CST 4:40 PM CST
Civil Twilight 6:56 AM CST 5:13 PM CST
Nautical Twilight 6:20 AM CST 5:49 PM CST
Astronomical Twilight 5:44 AM CST 6:24 PM CST
Moon 10:13 AM CST (11/25) 8:08 PM CST (11/25)
Length of Visible Light 10h 16m
Length of Day
9h 11m
Waxing Crescent, 13% of the Moon is Illuminated
Nov 25
Waxing Crescent
Nov 29
First Quarter
Dec 6
Full
Dec 14
Last Quarter
Dec 21
New

Hourly Weather History & Observations

Time (CST) Temp. Windchill Dew Point Humidity Pressure Visibility Wind Dir Wind Speed Gust Speed Precip Events Conditions
12:12 AM 12.2 °F -0.2 °F 10.4 °F 92% 29.95 in 10.0 mi WNW 9.2 mph - N/A   Clear
12:33 AM 12.2 °F -1.0 °F 10.4 °F 92% 29.96 in 10.0 mi WNW 10.4 mph 16.1 mph N/A   Clear
12:52 AM 12.2 °F -0.2 °F 10.4 °F 92% 29.96 in 10.0 mi WNW 9.2 mph - N/A   Clear
1:13 AM 12.2 °F -0.2 °F 10.4 °F 92% 29.96 in 10.0 mi WNW 9.2 mph - N/A   Clear
1:33 AM 12.2 °F -1.8 °F 8.6 °F 85% 29.97 in 10.0 mi WNW 11.5 mph - N/A   Clear
1:52 AM 12.2 °F -0.2 °F 8.6 °F 85% 29.97 in 10.0 mi WNW 9.2 mph - N/A   Clear
2:13 AM 12.2 °F 0.7 °F 8.6 °F 85% 29.99 in 10.0 mi WNW 8.1 mph - N/A   Clear
2:33 AM 12.2 °F -0.2 °F 8.6 °F 85% 30.00 in 10.0 mi WNW 9.2 mph - N/A   Clear
2:52 AM 12.2 °F 1.7 °F 8.6 °F 85% 30.00 in 10.0 mi WNW 6.9 mph - N/A   Clear
3:13 AM 12.2 °F -0.2 °F 8.6 °F 85% 30.01 in 10.0 mi WNW 9.2 mph - N/A   Clear
3:33 AM 10.4 °F -0.4 °F 8.6 °F 92% 30.01 in 10.0 mi WNW 6.9 mph - N/A   Clear
3:52 AM 10.4 °F -1.5 °F 8.6 °F 92% 30.01 in 10.0 mi WNW 8.1 mph - N/A   Clear
4:13 AM 10.4 °F -1.5 °F 8.6 °F 92% 30.01 in 10.0 mi WNW 8.1 mph - N/A   Clear
4:33 AM 10.4 °F -1.5 °F 8.6 °F 92% 30.01 in 10.0 mi WNW 8.1 mph - N/A   Clear
4:52 AM 10.4 °F 4.0 °F 8.6 °F 92% 30.01 in 10.0 mi WNW 3.5 mph - N/A   Clear
5:13 AM 10.4 °F 2.2 °F 8.6 °F 92% 30.00 in 10.0 mi WNW 4.6 mph - N/A   Clear
5:33 AM 10.4 °F 4.0 °F 8.6 °F 92% 30.01 in 10.0 mi WNW 3.5 mph - N/A   Clear
5:52 AM 10.4 °F 2.2 °F 6.8 °F 85% 30.01 in 10.0 mi WNW 4.6 mph - N/A   Clear
6:13 AM 10.4 °F - 6.8 °F 85% 30.01 in 10.0 mi Calm Calm - N/A   Clear
6:32 AM 8.6 °F 2.0 °F 6.8 °F 92% 30.02 in 10.0 mi West 3.5 mph - N/A   Clear
6:53 AM 10.4 °F - 6.8 °F 85% 30.01 in 10.0 mi Calm Calm - N/A   Clear
7:13 AM 8.6 °F - 6.8 °F 92% 30.01 in 10.0 mi Calm Calm - N/A   Clear
7:32 AM 8.6 °F 2.0 °F 6.8 °F 92% 30.02 in 10.0 mi West 3.5 mph - N/A   Clear
7:53 AM 8.6 °F - 6.8 °F 92% 30.01 in 10.0 mi Calm Calm - N/A   Clear
8:13 AM 10.4 °F - 6.8 °F 85% 30.01 in 10.0 mi Calm Calm - N/A   Mostly Cloudy
8:32 AM 10.4 °F - 6.8 °F 85% 30.01 in 10.0 mi Calm Calm - N/A   Overcast
8:53 AM 12.2 °F 6.1 °F 8.6 °F 85% 30.02 in 10.0 mi SW 3.5 mph - N/A   Overcast
9:13 AM 14.0 °F - 10.4 °F 86% 30.03 in 10.0 mi Calm Calm - N/A   Overcast
9:32 AM 14.0 °F - 10.4 °F 86% 30.04 in 10.0 mi Calm Calm - N/A   Overcast
9:53 AM 15.8 °F - 10.4 °F 79% 30.04 in 10.0 mi Calm Calm - N/A   Overcast
10:13 AM 15.8 °F - 10.4 °F 79% 30.04 in 10.0 mi Calm Calm - N/A   Overcast
10:32 AM 17.6 °F - 12.2 °F 79% 30.04 in 10.0 mi Calm Calm - N/A   Overcast
10:53 AM 17.6 °F - 12.2 °F 79% 30.04 in 10.0 mi Calm Calm - N/A   Overcast
11:12 AM 17.6 °F - 10.4 °F 73% 30.04 in 10.0 mi Calm Calm - N/A   Overcast
11:33 AM 19.4 °F - 10.4 °F 68% 30.03 in 10.0 mi Calm Calm - N/A   Overcast
11:53 AM 19.4 °F - 10.4 °F 68% 30.03 in 10.0 mi Calm Calm - N/A   Overcast
12:12 PM 19.4 °F 14.3 °F 10.4 °F 68% 30.02 in 10.0 mi South 3.5 mph - N/A   Overcast
12:33 PM 19.4 °F 14.3 °F 12.2 °F 74% 30.01 in 10.0 mi SSE 3.5 mph - N/A   Overcast
12:53 PM 21.2 °F - 12.2 °F 68% 30.01 in 10.0 mi Calm Calm - N/A   Overcast
1:12 PM 21.2 °F 11.7 °F 12.2 °F 68% 30.00 in 10.0 mi SE 8.1 mph - N/A   Overcast
1:33 PM 21.2 °F 16.4 °F 12.2 °F 68% 30.00 in 10.0 mi SE 3.5 mph - N/A   Overcast
1:53 PM 21.2 °F - 10.4 °F 63% 30.01 in 10.0 mi Calm Calm - N/A   Overcast
2:12 PM 21.2 °F 14.9 °F 10.4 °F 63% 30.00 in 10.0 mi SE 4.6 mph - N/A   Overcast
2:33 PM 23.0 °F 15.8 °F 12.2 °F 63% 29.99 in 10.0 mi SE 5.8 mph - N/A   Overcast
2:52 PM 23.0 °F 17.0 °F 12.2 °F 63% 29.99 in 10.0 mi SE 4.6 mph - N/A   Overcast
3:13 PM 24.8 °F 20.5 °F 12.2 °F 59% 29.99 in 10.0 mi SE 3.5 mph - N/A   Overcast
3:32 PM 24.8 °F 17.9 °F 12.2 °F 59% 29.99 in 10.0 mi SE 5.8 mph - N/A   Overcast
3:53 PM 24.8 °F 16.9 °F 12.2 °F 59% 29.99 in 10.0 mi SE 6.9 mph - N/A   Overcast
4:13 PM 24.8 °F 16.9 °F 12.2 °F 59% 29.99 in 10.0 mi SE 6.9 mph - N/A   Overcast
4:32 PM 24.8 °F 15.3 °F 14.0 °F 64% 29.98 in 10.0 mi SE 9.2 mph - N/A   Overcast
4:53 PM 24.8 °F 17.9 °F 12.2 °F 59% 29.98 in 10.0 mi SE 5.8 mph - N/A   Overcast
5:13 PM 24.8 °F 17.9 °F 15.8 °F 69% 29.98 in 10.0 mi SE 5.8 mph - N/A   Overcast
5:32 PM 24.8 °F 16.1 °F 15.8 °F 69% 29.97 in 10.0 mi ESE 8.1 mph - N/A   Mostly Cloudy
5:53 PM 23.0 °F 13.9 °F 15.8 °F 74% 29.97 in 10.0 mi ESE 8.1 mph - N/A   Clear
6:13 PM 23.0 °F 13.9 °F 15.8 °F 74% 29.97 in 10.0 mi SE 8.1 mph - N/A   Mostly Cloudy
6:32 PM 23.0 °F 14.7 °F 15.8 °F 74% 29.97 in 10.0 mi SE 6.9 mph - N/A   Overcast
6:53 PM 24.8 °F 16.9 °F 15.8 °F 69% 29.97 in 10.0 mi ESE 6.9 mph - N/A   Overcast
7:13 PM 24.8 °F 16.9 °F 15.8 °F 69% 29.97 in 10.0 mi SE 6.9 mph - N/A   Overcast
7:32 PM 24.8 °F 16.1 °F 15.8 °F 69% 29.97 in 10.0 mi ESE 8.1 mph - N/A   Overcast
7:53 PM 24.8 °F 15.3 °F 15.8 °F 69% 29.97 in 10.0 mi ESE 9.2 mph - N/A   Overcast
8:13 PM 24.8 °F 16.9 °F 17.6 °F 74% 29.97 in 10.0 mi SE 6.9 mph - N/A   Overcast
8:32 PM 24.8 °F 16.1 °F 17.6 °F 74% 29.97 in 10.0 mi SE 8.1 mph - N/A   Overcast
8:53 PM 24.8 °F 16.1 °F 17.6 °F 74% 29.97 in 10.0 mi SE 8.1 mph - N/A   Overcast
9:13 PM 24.8 °F 16.1 °F 17.6 °F 74% 29.97 in 10.0 mi SE 8.1 mph - N/A   Overcast
9:32 PM 24.8 °F 15.3 °F 17.6 °F 74% 29.96 in 10.0 mi SE 9.2 mph - N/A   Mostly Cloudy
9:53 PM 24.8 °F 16.1 °F 17.6 °F 74% 29.96 in 10.0 mi SE 8.1 mph - N/A   Scattered Clouds
10:13 PM 24.8 °F 14.6 °F 19.4 °F 80% 29.96 in 10.0 mi ESE 10.4 mph - N/A   Mostly Cloudy
10:32 PM 24.8 °F 16.1 °F 19.4 °F 80% 29.96 in 10.0 mi SE 8.1 mph - N/A   Scattered Clouds
10:53 PM 24.8 °F 15.3 °F 19.4 °F 80% 29.96 in 10.0 mi ESE 9.2 mph - N/A   Clear
11:13 PM 24.8 °F 16.1 °F 19.4 °F 80% 29.96 in 10.0 mi ESE 8.1 mph - N/A   Clear
11:32 PM 24.8 °F 14.6 °F 19.4 °F 80% 29.97 in 10.0 mi ESE 10.4 mph - N/A   Clear
11:53 PM 24.8 °F 16.1 °F 19.4 °F 80% 29.97 in 10.0 mi ESE 8.1 mph - N/A   Clear